Regional Weather Roundup
Issued by NWS

Home | Current Version | Previous Version | Graphics & Text | Print | Product List | Glossary On
Versions: 1 2 3 4 5 6 7 8 9 10 11 12 13 14 15 16 17 18 19 20 21 22 23 24 25 26 27 28 29 30 31 32 33 34 35 36 37 38 39 40 41 42 43 44 45 46 47 48 49 50
000
ASUS43 KDMX 260601
RWRIA

WEATHER ROUNDUP FOR IOWA
NATIONAL WEATHER SERVICE DES MOINES IA
100 AM CDT WED JUL 26 2017

NOTE: "FAIR" INDICATES FEW OR NO CLOUDS BELOW 12,000 FEET WITH NO
SIGNIFICANT WEATHER AND/OR OBSTRUCTIONS TO VISIBILITY.

* - THESE STATIONS ARE NOT NWS STATIONS...THUS NOT UNDER NWS
QUALITY CONTROL.  THEY ALSO DO NOT REPORT WEATHER SUCH
AS PRECIPITATION OR FOG.

IAZ001>003-012>014-020>022-031>034-043>046-260700-
   NORTHWEST IOWA

CITY           SKY/WX    TMP DP  RH WIND       PRES   REMARKS
CARROLL *      CLOUDY    79  75  89 S8        30.00F HX  82
DENISON *      CLOUDY    79  75  89 S15       30.00F HX  82
ORANGE CITY *  CLOUDY    81  75  83 W6        30.02R HX  86
SHELDON *      CLOUDY    79  75  89 W9        30.01R HX  82
SIOUX CITY     CLOUDY    80  74  81 SE8       29.93F HX  85
6HR MIN TEMP:  78; 6HR MAX TEMP:  90;

SPENCER        CLOUDY    79  73  82 S7        29.98F HX  82
6HR MIN TEMP:  78; 6HR MAX TEMP:  86;

STORM LAKE *   CLOUDY    77  73  88 S12       29.99F
$$

IAZ055>058-069>071-079>083-090>094-260700-
   SOUTHWEST IOWA

CITY           SKY/WX    TMP DP  RH WIND       PRES   REMARKS
ATLANTIC *     CLOUDY    81  75  83 S13G21    30.00F HX  86
AUDUBON *      CLOUDY    79  73  83 S7        30.02F HX  82
CLARINDA *       N/A     79  75  89 S6        30.04S HX  82
COUNCIL BLFS * CLOUDY    79  79 100 S13       29.99S HX  83
CRESTON *      CLOUDY    77  73  88 S10       30.06S
HARLAN  *      MOCLDY    79  77  94 S10       30.03S HX  83
LAMONI         MOCLDY    77  72  84 S7        30.06S
6HR MIN TEMP:  77; 6HR MAX TEMP:  87;

RED OAK *      MOCLDY    79  75  89 S9        30.01S HX  82
SHENANDOAH *   CLOUDY    81  75  83 SE10      30.01S HX  86
$$

IAZ047>049-059>061-072>074-084-260700-
   CENTRAL IOWA

CITY           SKY/WX    TMP DP  RH WIND       PRES   REMARKS
AMES           CLOUDY    75  73  93 SE6       30.02S
6HR MIN TEMP:  75; 6HR MAX TEMP:  86;

ANKENY *       CLOUDY    77  72  83 S5        30.04S
BOONE *        CLOUDY    77  73  88 S7        30.02F
CHARITON *     MOCLDY    77  68  73 S9        30.05F
DES MOINES     CLOUDY    79  73  82 S5        30.03R HX  82
6HR MIN TEMP:  79; 6HR MAX TEMP:  92;

GRINNELL*      CLOUDY    73  67  84 S6        30.08S
KNOXVILLE *    CLOUDY    77  68  73 SE6       30.03F
MARSHALLTOWN   CLOUDY    75  69  81 SE8       30.03F
6HR MIN TEMP:  75; 6HR MAX TEMP:  84;

NEWTON *       CLOUDY    72  68  88 SE7       30.05F
PELLA *        MOCLDY    75  66  73 SE5       30.06S
PERRY *          N/A     78  75  91 S7        30.02F HX  80
$$

IAZ004>006-015-016-023>025-035-036-260700-
   NORTH CENTRAL IOWA

CITY           SKY/WX    TMP DP  RH WIND       PRES   REMARKS
ALGONA *       CLOUDY    79  75  89 S10       30.00F HX  82
CLARION *      CLOUDY    75  75 100 S8        30.02F
ESTHERVILLE    CLOUDY    75  74  96 S6        29.98F
6HR MIN TEMP:  74; 6HR MAX TEMP:  81;

FORT DODGE *   CLOUDY    79  72  78 S9        30.01F HX  82
MASON CITY     CLOUDY    72  69  90 S7        30.04S
6HR MIN TEMP:  72; 6HR MAX TEMP:  80;

FOREST CITY *    N/A     73  72  94 S5        30.02F
WEBSTER CITY * CLOUDY    77  73  88 SE8       30.00F
IOWA FALLS *     N/A     75  70  84 S8        30.04F
$$

IAZ007>011-017>019-026>030-037>042-050>054-066-260700-
   NORTHEAST IOWA

CITY           SKY/WX    TMP DP  RH WIND       PRES   REMARKS
CHARLES CITY * CLOUDY    73  72  94 S8        30.04F
DECORAH *      CLOUDY    73  68  83 S9        30.04S
DUBUQUE        CLOUDY    69  66  90 S8        30.09R
6HR MIN TEMP:  69; 6HR MAX TEMP:  77;

MONTICELLO *   CLOUDY    70  68  94 SE5       30.09R
OELWEIN *      CLOUDY    72  70  94 S10       30.07S
$$

IAZ064-065-067-068-078-260700-
   EAST CENTRAL IOWA

CITY           SKY/WX    TMP DP  RH WIND       PRES   REMARKS
DAVENPORT      CLOUDY    72  66  81 S7        30.11R
6HR MIN TEMP:  72; 6HR MAX TEMP:  79;

MUSCATINE *    CLOUDY    73  68  83 SE5       30.08S
QUAD CITIES    CLOUDY    72  66  81 E3        30.10R
6HR MIN TEMP:  71; 6HR MAX TEMP:  81;

$$

IAZ062-063-075>077-085>089-095>099-260700-
   SOUTHEAST IOWA

CITY           SKY/WX    TMP DP  RH WIND       PRES   REMARKS
BURLINGTON     MOCLDY    74  70  87 S6        30.08R
6HR MIN TEMP:  74; 6HR MAX TEMP:  83;

FAIRFIELD *    CLOUDY    77  68  73 S8        30.06S
FORT MADISON * PTCLDY    73  70  88 S7        30.09R
KEOKUK *       CLEAR     75  70  83 SE7       30.08R
OSKALOOSA *      N/A     72  67  84 CALM      30.07R
OTTUMWA        CLOUDY    76  68  76 S6        30.06R
6HR MIN TEMP:  76; 6HR MAX TEMP:  88;

WASHINGTON *   CLOUDY    72  70  94 SE5       30.08S
$$

ABBREVIATIONS USED IN REMARKS
   TC - TEMPERATURES IN CELSIUS
  WCI - WIND CHILL INDEX
   HX - HEAT INDEX
  VSB - VISIBILITY
$$





USA.gov is the U.S. government's official web portal to all federal, state and local government web resources and services.